Weather in Asekeevo

Russia / Orenburg Oblast     53°34′29″N   52°48′19″E
temp.,
°C
wind,
m/s
gust,
m/s
humid.,
%
clouds,
%
prec.,
mm/h
press.,
hPa
HPBL,
m
5 august, thu
thu523:00+28nw5104185 0.0 1009333
02:00+22nw6116580 0.0 1011312
05:00+19nnw3688100 0.6 1011137
08:00+20wnw228162 0.0 1012282
11:00+25nnw555222 0.0 1012997
14:00+29n6534100 0.0 10111978
17:00+30nnw642765 0.0 10113005
20:00+26n783749 0.0 10121202
6 august, fri
fri623:00+20nnw34490 0.0 101387
02:00+17nnw326015 0.0 101427
05:00+15nnw33671 0.0 101538
08:00+18n36541 0.0 1015253
11:00+25nne44370 0.0 10151785
14:00+28n54265 0.0 10142501
17:00+29nnw552246 0.0 10142631
20:00+26nnw462298 0.0 1014240
7 august, sat
sat723:00+19n48365 0.0 1015116
02:00+16ene37436 0.0 101795
05:00+15e224734 0.0 101816
08:00+19ene23385 0.0 1018174
11:00+26e32255 0.0 10181188
14:00+30ne222112 0.0 10171871
17:00+31nne33215 0.0 10162300
20:00+29ene352631 0.0 1017213
8 august, sun
sun823:00+20e411432 0.0 1018195
02:00+17ese375275 0.0 1019126
05:00+16ese2254100 0.0 102026
08:00+20se234296 0.0 1020174
11:00+28sse2327100 0.0 1020736
14:00+33s23205 0.0 10182422
17:00+34s231897 0.0 10173104
20:00+31s112497 0.0 101613
9 august, mon
mon923:00+25ese2234100 0.0 101713
02:00+23se223899 0.0 101618
05:00+22sse333978 0.0 101633
08:00+25s2632100 0.0 1016165
11:00+31w5522100 0.0 1016926
14:00+32sw1320100 0.0 10151049
17:00+34sse3620100 0.0 10141800
20:00+32s5922100 0.0 1012344